Current weather by "City, St" or "zip code"  
 

Current Conditions: Chico Municipal Airport, CA

Fair


59.0 F

Last Updated on May 21 2022, 2:15 am PDT
Humidity: 21%
Wind Speed: N 5.8 mph
Barometer 29.84 in
Dewpoint: 19.4 F
Visibility: 10.00 mi
Precip: --
Heat Index: NA
Wind Chill: 58 F
Current conditions at:

Chico Municipal Airport, CA (KCIC)

Lat: 39.79879 Lon: 121.85795

Local Radar Image active severe weather and emergency alerts image image weather storm and storm spotter reports image weather observation monitoring service image
Local
Radar
Active
Alerts
Storm Reports Obs
Monitoring

Sign-up For Email & Text Message Weather Alert Notification Services



Advertise Here

Observation History for Chico Municipal Airport, CA


Time Wind
(mph)
Vis
(mi)
Weather Precip (in) Temperature (F) Relative
Humidity
Wind
Chill
(F)
Heat
Index
(F)
Pressure
Air Dwpt altimeter
(in)
sea level
(mb)
Rmks
2:15 am PDT N 5.8 10.00 Fair -- 59.0 19.4 21% 58 NA 29.84 M
1:55 am PDT N 8.1 10.00 Fair -- 59.0 17.6 20% 58 NA 29.83 M
1:35 am PDT NW 9.2 10.00 Fair -- 59.0 17.6 20% 57 NA 29.83 M
1:15 am PDT N 6.9 10.00 Fair -- 63.0 17.6 17% 63 NA 29.83 M
12:55 am PDT N 6.9 10.00 Fair -- 64.0 17.6 16% NA NA 29.83 M
12:15 am PDT NW 8.1 10.00 Fair -- 64.0 17.6 16% NA NA 29.83 M
11:55 pm PDT NE 9.2 10.00 Fair -- 64.0 17.6 16% NA NA 29.83 M
11:35 pm PDT NE 8.1 10.00 Fair -- 64.0 17.6 16% NA NA 29.83 M
11:15 pm PDT NE 9.2 10.00 Fair -- 66.0 17.6 15% NA NA 29.84 M
10:55 pm PDT NE 8.1 10.00 Fair -- 66.0 17.6 15% NA NA 29.84 M
10:15 pm PDT NE 8.1 10.00 Fair -- 72.0 15.8 12% NA NA 29.83 M
6:47 pm PDT N 10.4 40.00 Fair -- 81.0 10.4 7% NA 79 29.78 M
5:47 pm PDT N 12.7 40.00 Fair -- 81.0 10.4 7% NA 79 29.78 M
4:47 pm PDT E 8.1 G 19.6 40.00 Fair -- 81.0 8.6 6% NA 79 27.97 M
2:47 pm PDT NW 11.5 40.00 Fair -- 79.0 6.8 6% NA NA 29.81 M
1:47 pm PDT 5.8 40.00 A Few Clouds -- 77.0 6.8 6% NA NA 29.83 M
12:47 pm PDT NW 11.5 40.00 Fair -- 75.0 6.8 7% NA NA 29.85 M
11:47 am PDT 5.8 40.00 Fair -- 72.0 8.6 8% NA NA 29.86 M
8:47 am PDT W 18.4 40.00 A Few Clouds -- 66.0 17.6 15% NA NA 29.90 M
8:15 am PDT NW 13.8 10.00 Fair -- 63.0 19.4 19% 61 NA 29.90 M
7:55 am PDT NW 17.3 G 24.2 10.00 Fair -- 61.0 19.4 20% 58 NA 29.90 M
7:47 am PDT NW 17.3 40.00 A Few Clouds -- 59.0 19.4 21% 56 NA 29.90 M
7:35 am PDT NW 15.0 G 21.9 10.00 Fair -- 59.0 19.4 21% 56 NA 29.90 M
7:15 am PDT NW 15.0 10.00 Fair -- 57.0 21.2 25% 54 NA 29.90 M

Regional Weather Observation


Chico Municipal Airport, CA (KCIC)

Fair
59.0 F

Redding Municipal Airport, CA (KRDD)

Fair
66.0 F

Oroville Municipal Airport, CA (KOVE)

Fair
62.0 F

Marysville, Yuba County Airport, CA (KMYV)

Fair
56.0 F

Marysville, Beale Air Force Base, CA (KBAB)

Fair with Haze
58.0 F

Nevada County Air Park, CA (KGOO)

Partly Cloudy
57.0 F

Advertise Here


Advertise Here